Lid_Strength_Index
4 4 4 4 4 4 4 4 4 4 3 3 4 4 4 4 3 7 8 5 4 2 2 4 3 2 2 4 3 3 10 12 11 10 9 7 8 6 5 6 5 4 3 3 2
4 4 4 4 4 3 3 3 3 3 3 3 3 4 4 4 6 10 6 4 3 3 7 7 7 4 6 6 6 8 11 10 8 7 8 7 8 7 8 7 7 4 3 3 3
4 4 4 4 4 3 4 3 3 2 3 4 4 5 5 4 9 12 5 4 4 5 7 6 5 6 7 6 7 8 11 8 8 7 7 8 8 7 8 9 7 6 4 4 4
4 5 5 5 5 5 5 4 3 3 4 4 5 5 4 6 14 9 5 4 4 7 8 7 6 7 9 9 7 10 7 7 7 7 7 8 7 8 7 7 5 5 3 4 4
5 5 5 5 5 5 5 5 3 4 4 6 6 5 6 11 12 6 3 4 6 7 8 8 7 7 9 8 7 9 8 6 5 7 7 7 8 8 7 6 5 5 4 4 4
5 5 5 5 5 5 5 5 3 3 4 6 5 4 10 13 6 5 6 7 7 8 8 8 8 5 7 8 8 7 8 7 6 7 7 8 8 7 7 5 5 5 4 4 4
5 5 6 6 6 6 5 6 6 5 5 5 4 5 10 10 5 5 6 7 7 7 9 7 6 7 6 8 6 7 10 8 8 7 7 7 9 9 6 6 6 5 4 4 4
6 6 6 6 6 6 6 6 6 5 5 6 6 7 11 6 4 6 6 7 6 5 6 5 5 6 6 6 8 9 9 14 9 7 6 7 12 8 6 6 6 6 4 4 4
6 6 6 6 6 6 6 7 6 7 6 7 8 8 12 4 7 6 6 9 7 5 5 4 5 7 6 10 13 11 14 12 12 7 7 8 11 8 6 7 6 5 5 4 5
6 6 6 7 6 6 6 6 7 6 8 8 8 10 8 10 7 6 6 7 8 7 7 7 6 9 8 11 17 15 14 11 11 9 8 9 10 8 7 7 7 6 5 5 6
6 6 7 7 6 7 7 8 10 11 11 13 12 11 9 7 6 7 7 8 8 9 12 10 10 12 13 12 12 12 13 14 10 7 9 9 9 8 7 7 7 6 6 5 6
7 6 7 7 8 7 7 10 11 10 13 11 10 9 8 7 10 9 7 11 11 13 11 11 12 12 11 11 12 12 14 13 11 7 8 9 9 8 8 8 7 7 6 7 10
6 6 7 7 9 9 10 11 8 8 12 13 10 10 9 8 11 11 10 11 12 13 13 13 12 11 12 12 13 12 14 14 14 10 8 9 11 9 8 9 8 10 9 9 10
6 6 8 8 10 10 11 9 8 7 15 15 12 10 9 9 12 8 8 10 11 14 12 12 10 11 12 13 14 16 10 12 13 14 17 9 17 11 9 10 10 13 15 16 14
6 7 9 9 11 12 11 9 8 9 20 14 12 7 8 11 11 10 7 9 12 12 11 13 12 13 14 14 13 15 11 14 15 15 15 13 15 11 9 11 12 14 17 17 16
7 9 9 10 10 11 10 9 10 15 20 16 12 12 12 11 12 10 10 7 8 11 10 12 9 11 13 12 11 13 12 12 13 14 19 15 14 13 11 10 13 16 17 18 17
8 10 11 11 13 10 10 11 15 19 14 16 16 13 13 15 14 13 13 13 15 17 16 13 12 11 12 14 12 15 14 17 20 20 20 12 16 20 17 14 14 18 18 18 19
8 11 11 11 10 10 11 14 20 19 18 14 14 14 16 14 15 14 14 15 12 13 15 17 19 14 12 15 17 16 16 18 22 21 17 13 18 20 17 17 17 18 19 19 20
10 10 11 11 10 10 13 18 20 19 16 17 15 17 16 15 15 15 15 15 13 12 17 18 18 11 12 12 13 16 17 17 20 17 18 20 23 19 17 19 19 19 19 21 20
11 12 12 11 10 10 14 20 19 16 16 15 18 16 18 17 17 16 15 13 13 11 11 14 18 13 11 11 12 15 15 19 19 22 22 23 25 25 20 20 20 21 21 21 20
11 14 12 11 10 13 19 20 18 16 15 16 17 17 16 18 17 17 16 13 11 12 11 12 14 15 12 16 18 16 20 19 20 22 23 23 27 20 20 20 20 20 20 20 21
12 15 12 11 15 16 19 19 17 17 15 15 15 15 16 16 17 17 16 14 10 11 14 11 14 17 17 14 14 15 18 20 23 22 20 21 27 19 19 18 19 19 19 19 19
14 14 11 11 18 18 18 19 18 18 17 16 16 15 14 16 19 16 15 11 10 11 13 12 14 18 17 16 13 16 16 19 19 20 23 24 26 18 19 19 18 19 19 18 18
14 16 15 15 16 18 19 20 20 17 17 16 16 14 15 17 15 17 16 12 10 10 9 10 14 16 19 19 16 18 17 18 20 21 22 23 25 23 22 21 20 19 18 18 18
14 18 18 19 19 19 19 20 21 21 17 16 16 16 17 19 17 17 15 14 11 10 11 12 17 16 16 15 15 17 18 19 22 21 23 23 24 23 22 22 21 19 19 19 19
15 16 17 19 19 19 20 21 21 20 20 19 18 16 16 18 17 19 17 15 14 12 12 12 16 15 16 14 15 17 17 18 19 20 21 21 23 19 19 19 21 21 20 20 20
15 15 14 20 19 19 20 21 21 19 18 17 17 17 17 16 15 14 13 13 12 14 14 14 15 16 18 15 16 18 19 18 18 19 20 23 21 19 20 20 21 21 21 21 20